This is the latest recevied weather packets stored in our database for station/object KE1THD. If no packets are shown the sender has not sent any weather packets the latest 1 day(s).
| Time | Temp. | Humidity | Pressure | Rain* | Wind** | Luminosity | Snow |
|---|---|---|---|---|---|---|---|
| 1778001147 | 12.78° C | 39% | 1011 hPa | 0 mm | 1.34 m/s, 288° | 360 W/m² | - |
| 1778000843 | 12.22° C | 38% | 1011.1 hPa | 0 mm | 3.13 m/s, 307° | 390 W/m² | - |
| 1778000540 | 12.22° C | 39% | 1010.8 hPa | 0 mm | 0.45 m/s, 281° | 336 W/m² | - |
| 1778000236 | 12.78° C | 39% | 1010.8 hPa | 0 mm | 1.79 m/s, 25° | 319 W/m² | - |
| 1777999932 | 13.33° C | 39% | 1011.1 hPa | 0 mm | 3.13 m/s, 9° | 360 W/m² | - |
| 1777999627 | 12.78° C | 39% | 1011 hPa | 0 mm | 1.79 m/s, 286° | 475 W/m² | - |
| 1777999325 | 12.22° C | 40% | 1011.1 hPa | 0 mm | 1.34 m/s, 280° | 571 W/m² | - |
| 1777999023 | 12.22° C | 39% | 1010.9 hPa | 0 mm | 3.13 m/s, 34° | 423 W/m² | - |
| 1777998721 | 11.67° C | 41% | 1010.7 hPa | 0 mm | 1.34 m/s, 7° | 368 W/m² | - |
| 1777998418 | 11.67° C | 42% | 1010.8 hPa | 0 mm | 1.79 m/s, 350° | 337 W/m² | - |
| 1777998115 | 12.22° C | 41% | 1010.8 hPa | 0 mm | 2.24 m/s, 260° | 306 W/m² | - |
| 1777997812 | 11.67° C | 43% | 1010.6 hPa | 0 mm | 1.34 m/s, 299° | 286 W/m² | - |
| 1777997509 | 11.67° C | 43% | 1010.8 hPa | 0 mm | 0.45 m/s, 329° | 272 W/m² | - |
| 1777997207 | 11.67° C | 41% | 1010.6 hPa | 0 mm | 4.47 m/s, 333° | 229 W/m² | - |
| 1777996904 | 11.11° C | 42% | 1010.6 hPa | 0 mm | 2.24 m/s, 13° | 215 W/m² | - |
| 1777996601 | 11.67° C | 43% | 1010.7 hPa | 0 mm | 1.34 m/s, 13° | 210 W/m² | - |
| 1777996297 | 11.67° C | 41% | 1010.6 hPa | 0 mm | 2.68 m/s, 6° | 232 W/m² | - |
| 1777995993 | 11.67° C | 43% | 1010.4 hPa | 0 mm | 1.34 m/s, 343° | 232 W/m² | - |
| 1777995689 | 11.67° C | 42% | 1010.6 hPa | 0 mm | 2.24 m/s, 357° | 298 W/m² | - |
| 1777995387 | 11.11° C | 42% | 1010.7 hPa | 0 mm | 2.24 m/s, 34° | 330 W/m² | - |
| 1777995084 | 11.67° C | 41% | 1010.7 hPa | 0 mm | 4.47 m/s, 353° | 323 W/m² | - |
| 1777994780 | 11.67° C | 41% | 1010.6 hPa | 0 mm | 2.24 m/s, 317° | 334 W/m² | - |
| 1777994476 | 11.67° C | 41% | 1010.5 hPa | 0 mm | 2.68 m/s, 26° | 367 W/m² | - |
| 1777994172 | 11.67° C | 41% | 1010.3 hPa | 0 mm | 2.68 m/s, 36° | 298 W/m² | - |
| 1777993869 | 11.67° C | 43% | 1010.4 hPa | 0 mm | 2.68 m/s, 15° | 278 W/m² | - |
* Rain latest hour (hover to see other rain measurements)
** Current wind speed in m/s (hover to see current wind gust speed)